User: anonymous   Login
Location: Unspecified
(44.0704°N, 88.6889°W)
Time: 23:01:20
(UTC+02:00)
Language:

ISS - Orbit

View from above orbital plane
View from above orbital plane
View from above satellite
View from above satellite

Ground track
Ground track

The orbit data is extracted from the following two-line orbital elements,

1 25544U 98067A   19292.93790075  .00016717  00000-0  10270-3 0  9022
2 25544  51.6411 102.6891 0006894 166.5682 193.5653 15.50202666 34606
Epoch (UTC): 19 October 2019 22:30:34
Eccentricity: 0.0006894
inclination: 51.6411°
perigee height: 411 km
apogee height: 421 km
right ascension of ascending node: 102.6891°
argument of perigee: 166.5682°
revolutions per day: 15.50202666
mean anomaly at epoch: 193.5653°
orbit number at epoch: 3460

The dashed part of the orbit path shows where the satellite is in the earth's shadow,  

DLR